Location: Limerick
(52.6800°N, 8.6400°W)
Time: 01:31:44
(UTC+00:00)

ISS - All Passes

Search period start: 25 November 2014 00:00
Search period end: 05 December 2014 00:00
Orbit: 408 x 417 km, 51.6° (Epoch: 24 November)

Date Brightness Start Highest point End Pass type
(mag) Time Alt. Az. Time Alt. Az. Time Alt. Az.
25 Nov - 00:46:10 10° S 00:48:28 18° SE 00:50:45 10° E night (unlit)
25 Nov - 02:21:25 10° WSW 02:24:38 53° SSE 02:27:52 10° E night (unlit)
25 Nov - 03:57:53 10° W 04:01:11 75° S 04:04:29 10° E visible
25 Nov - 05:34:33 10° W 05:37:39 38° SSW 05:40:45 10° SE visible
25 Nov - 07:12:45 10° WSW 07:13:38 11° SW 07:14:31 10° SSW visible
25 Nov - 23:57:43 10° SSE 23:59:04 12° SE 00:00:25 10° ESE night (unlit)
26 Nov - 01:31:58 10° SW 01:35:05 41° SSE 01:38:13 10° E night (unlit)
26 Nov - 03:08:17 10° W 03:11:35 76° S 03:14:53 10° E night (unlit)
26 Nov - 04:44:54 10° W 04:48:07 50° SSW 04:51:20 10° ESE visible
26 Nov - 06:22:08 10° WSW 06:24:16 16° SW 06:26:23 10° S visible
27 Nov - 00:42:40 10° SW 00:45:37 31° SSE 00:48:35 10° E night (unlit)
27 Nov - 02:18:44 10° WSW 02:22:01 71° S 02:25:19 10° E night (unlit)
27 Nov - 03:55:20 10° W 03:58:36 62° SSW 04:01:52 10° ESE night (unlit)
27 Nov - 05:32:13 10° W 05:34:53 23° SSW 05:37:33 10° SSE visible
27 Nov - 23:53:36 10° SSW 23:56:14 22° SSE 23:58:53 10° E night (unlit)
28 Nov - 01:29:16 10° WSW 01:32:31 61° SSE 01:35:47 10° E night (unlit)
28 Nov - 03:05:49 10° W 03:09:06 71° S 03:12:24 10° ESE night (unlit)
28 Nov - 04:42:33 10° W 04:45:31 31° SSW 04:48:29 10° SE visible
28 Nov - 23:04:52 10° S 23:06:57 16° SE 23:09:02 10° ESE night (unlit)
29 Nov - 00:39:54 10° WSW 00:43:06 49° SSE 00:46:18 10° E night (unlit)
29 Nov - 02:16:21 10° W 02:19:39 76° S 02:22:57 10° E night (unlit)
29 Nov - 03:53:01 10° W 03:56:09 42° SSW 03:59:17 10° SE night (unlit)
29 Nov - 05:30:46 10° WSW 05:32:11 12° SW 05:33:36 10° SSW visible
29 Nov - 22:16:59 10° SSE 22:17:46 11° SE 22:18:32 10° SE night (unlit)
29 Nov - 23:50:40 10° SW 23:53:45 38° SSE 23:56:50 10° E night (unlit)
30 Nov - 01:26:56 10° W 01:30:14 75° S 01:33:31 10° E night (unlit)
30 Nov - 03:03:34 10° W 03:06:48 53° SSW 03:10:01 10° ESE night (unlit)
30 Nov - 04:40:41 10° W 04:43:00 18° SW 04:45:18 10° S night (unlit)
30 Nov - 23:01:36 10° SSW 23:04:29 28° SSE 23:07:22 10° E night (unlit)
01 Dec - 00:37:35 10° WSW 00:40:52 68° S 00:44:09 10° E night (unlit)
01 Dec - 02:14:11 10° W 02:17:28 65° S 02:20:44 10° ESE night (unlit)
01 Dec - 03:51:02 10° W 03:53:48 25° SSW 03:56:33 10° SSE night (unlit)
01 Dec - 22:12:47 10° SSW 22:15:18 20° SSE 22:17:50 10° E night (unlit)
01 Dec - 23:48:19 10° WSW 23:51:34 58° SSE 23:54:49 10° E night (unlit)
02 Dec - 01:24:51 10° W 01:28:09 73° S 01:31:26 10° ESE night (unlit)
02 Dec - 03:01:34 10° W 03:04:36 34° SSW 03:07:37 10° SE night (unlit)
02 Dec - 21:24:22 10° S 21:26:13 14° SE 21:28:05 10° ESE night (unlit)
02 Dec - 22:59:09 10° SW 23:02:20 46° SSE 23:05:31 10° E night (unlit)
03 Dec - 00:35:35 10° W 00:38:53 76° S 00:42:10 10° E night (unlit)
03 Dec - 02:12:14 10° W 02:15:25 45° SSW 02:18:35 10° SE night (unlit)
03 Dec - 03:49:46 10° WSW 03:51:30 14° SW 03:53:14 10° S night (unlit)
03 Dec - 22:10:08 10° SW 22:13:11 35° SSE 22:16:14 10° E night (unlit)
03 Dec - 23:46:21 10° W 23:49:39 73° S 23:52:57 10° E night (unlit)
04 Dec - 01:22:59 10° W 01:26:14 57° SSW 01:29:29 10° ESE night (unlit)
04 Dec - 03:00:02 10° W 03:02:29 20° SW 03:04:56 10° SSE night (unlit)
04 Dec - 21:21:18 10° SSW 21:24:07 26° SSE 21:26:55 10° E night (unlit)
04 Dec - 22:57:12 10° WSW 23:00:29 66° S 23:03:45 10° E night (unlit)
